[[{"header":{"parameterUnit":"m.s-1","parameterCategory":1,"la1":30.2992,"la2":30.254,"lo1":-89.0895,"lo2":-89.0443,"dy":0.0025,"dx":0.0025,"nx":19,"ny":19,"refTime":"2026-04-03T03:00:00:Z","depth":0,"parameterNumber":2,"parameterNumberName":"U-component_of_WINDS"},"data":[0,0,0,-4.465,-4.4653,-4.4793,-4.4794,-4.4983,-4.4985,0,0,0,0,0,0,0,0,0,0,0,-4.4615,-4.4616,-4.465,-4.4654,-4.4793,-4.4794,-4.4983,-4.4985,0,0,0,0,0,0,0,0,0,0,0,-4.4614,-4.4616,-4.4617,-4.4654,-4.4793,-4.4794,-4.4983,-4.4873,0,0,0,0,0,0,0,0,0,0,-4.4736,-4.4708,-4.4615,-4.4618,-4.4655,-4.4793,-4.4794,-4.4868,-4.488,-4.4924,0,-4.4964,0,-4.4978,-4.4998,-4.4999,0,0,0,-4.465,-4.4698,-4.4731,-4.4618,-4.4656,-4.4793,-4.4729,-4.4875,-4.4889,-4.4941,-4.4967,-4.4974,-4.4981,-4.5,-4.5001,-4.5268,-4.5269,0,0,-4.4642,-4.4643,-4.4721,-4.474,-4.4718,-4.4725,-4.4734,-4.4883,-4.4912,-4.4968,-4.4978,-4.4984,-4.5001,-4.5003,-4.5267,-4.5268,0,0,0,-4.4622,-4.4638,-4.4666,-4.4732,-4.4757,-4.4729,-4.4739,-4.4905,-4.4915,-4.498,-4.4986,-4.5002,-4.5005,-4.5265,-4.5267,-4.5339,0,0,0,-4.4618,-4.4626,-4.4663,-4.4665,-4.4754,-4.4833,-4.4758,-4.4904,-4.4921,-4.4985,-4.5002,-4.5007,-4.5264,-4.5266,-4.5333,-4.5372,0,0,0,-4.4604,-4.4624,-4.4647,-4.4665,-4.4725,-4.483,-4.4848,-4.4908,-4.4925,-4.4999,-4.5007,-4.5262,-4.5266,-4.5328,-4.5364,-4.5442,0,0,0,-4.4589,-4.4708,-4.4648,-4.4784,-4.4724,-4.4874,-4.4847,-4.4959,-4.5031,-4.5003,-4.5264,-4.5267,-4.5327,-4.5359,-4.5436,-4.5506,-4.5535,0,0,-4.474,-4.4726,-4.4807,-4.4757,-4.4917,-4.4852,-4.5024,-4.5089,-4.5096,-4.5211,-4.5217,-4.5335,-4.5363,-4.544,-4.5704,-4.5727,0,0,0,-4.4855,-4.4912,-4.4955,-4.5023,-4.5077,-4.5125,-4.5164,-4.5189,-4.5286,-4.5155,-4.5385,-4.5402,-4.5447,-4.548,-4.55,-4.5539,-4.5283,-4.5283,-4.5282,-4.5068,-4.5071,-4.5203,-4.5223,-4.5291,-4.5331,-4.5386,-4.5426,-4.5409,-4.5464,-4.5496,-4.5656,-4.5695,-4.571,-4.575,-4.5535,-4.5536,-4.5536,-4.5536,-4.5288,-4.5369,-4.5346,-4.5465,-4.5468,-4.5569,-4.5614,-4.5598,-4.5693,-4.5631,-4.5671,-4.56,-4.5735,-4.577,-4.5541,-4.554,-4.554,-4.5539,-4.5539,-4.5426,-4.5466,-4.5495,-4.5595,-4.5673,-4.569,-4.5783,-4.5782,-4.5782,-4.5822,-4.5857,-4.5856,-4.5854,-4.584,-4.584,-4.5841,-4.5841,-4.5842,-4.5842,-4.5558,-4.5588,-4.5665,-4.5734,-4.5778,-4.5837,-4.5881,-4.5926,-4.5975,-4.5967,-4.5967,-4.5944,-4.5749,-4.5698,-4.585,-4.5849,-4.5848,-4.5847,-4.5846,-4.5776,-4.5727,-4.5847,-4.5892,-4.5973,-4.605,-4.605,-4.6141,-4.6178,-4.6224,-4.6194,-4.605,-4.6035,-4.602,-4.5978,-4.6193,-4.6193,-4.6193,-4.6193,-4.5892,-4.5886,-4.6008,-4.608,-4.6151,-4.6164,-4.63,-4.6336,-4.6366,-4.639,-4.6359,-4.6305,-4.6289,-4.6284,-4.6262,-4.6223,-4.6496,-4.6497,-4.6497,-4.6026,-4.6027,-4.6142,-4.617,-4.6234,-4.6289,-4.6418,-4.6502,-4.6526,-4.6509,-4.6408,-4.6395,-4.6307,-4.6278,-4.6255,-4.6222,-4.615,0,0]},{"header":{"parameterUnit":"m.s-1","parameterCategory":1,"la1":30.2992,"la2":30.254,"lo1":-89.0895,"lo2":-89.0443,"dy":0.0025,"dx":0.0025,"nx":19,"ny":19,"refTime":"2026-04-03T03:00:00:Z","depth":0,"parameterNumber":3,"parameterNumberName":"V-component_of_WINDS"},"data":[0,0,0,2.5954,2.5954,2.5977,2.5977,2.5999,2.5999,0,0,0,0,0,0,0,0,0,0,0,2.5943,2.5943,2.5954,2.5954,2.5977,2.5977,2.5999,2.5999,0,0,0,0,0,0,0,0,0,0,0,2.5943,2.5943,2.5943,2.5954,2.5977,2.5977,2.5999,2.5984,0,0,0,0,0,0,0,0,0,0,2.5963,2.595,2.5943,2.5943,2.5954,2.5977,2.5977,2.5984,2.5985,2.5986,0,2.5986,0,2.5993,2.6,2.6,0,0,0,2.5957,2.5948,2.5958,2.5943,2.5955,2.5977,2.5968,2.5985,2.5986,2.5988,2.5987,2.5988,2.5994,2.6001,2.6001,2.5999,2.5999,0,0,2.5955,2.5945,2.5957,2.5959,2.5956,2.5967,2.5968,2.5986,2.5983,2.5987,2.5988,2.5994,2.6001,2.6001,2.5999,2.5999,0,0,0,2.595,2.5944,2.5954,2.5958,2.5963,2.5967,2.5969,2.5982,2.5987,2.5989,2.5994,2.6001,2.6001,2.5999,2.5999,2.5983,0,0,0,2.595,2.5941,2.5953,2.5947,2.5963,2.5973,2.5965,2.5985,2.5988,2.5994,2.6001,2.6001,2.6,2.5999,2.5984,2.5977,0,0,0,2.5943,2.594,2.5942,2.5946,2.5956,2.5973,2.5978,2.5986,2.5991,2.6001,2.6001,2.6,2.5999,2.5985,2.5978,2.5974,0,0,0,2.5932,2.5927,2.5942,2.5938,2.5955,2.5964,2.5978,2.5985,2.5991,2.6001,2.5999,2.5999,2.5985,2.5979,2.5975,2.5969,2.5965,0,0,2.5919,2.5925,2.5923,2.5938,2.5941,2.5961,2.5962,2.5977,2.5986,2.5994,2.5994,2.5984,2.5979,2.5974,2.595,2.5947,0,0,0,2.5916,2.5915,2.5918,2.5924,2.5937,2.5947,2.5963,2.5969,2.5976,2.5989,2.5982,2.5979,2.5977,2.5974,2.5972,2.5971,2.5998,2.5998,2.5998,2.5881,2.5896,2.5895,2.5912,2.5918,2.5936,2.5942,2.5953,2.5964,2.5962,2.5964,2.5948,2.5945,2.5943,2.5942,2.5963,2.5963,2.5962,2.5962,2.5863,2.5864,2.5882,2.5887,2.5902,2.5906,2.5923,2.5932,2.5937,2.5947,2.5946,2.5956,2.594,2.5939,2.5961,2.5962,2.5962,2.5962,2.5962,2.5842,2.5845,2.5853,2.5865,2.5872,2.589,2.5895,2.5909,2.5921,2.592,2.5924,2.5924,2.5926,2.5921,2.5921,2.5921,2.5921,2.5921,2.5921,2.5816,2.5826,2.583,2.5844,2.5851,2.5861,2.588,2.5886,2.5897,2.5906,2.5906,2.5918,2.5936,2.594,2.592,2.592,2.592,2.592,2.5921,2.5792,2.58,2.5805,2.5812,2.583,2.5837,2.5855,2.5867,2.5874,2.5876,2.5889,2.59,2.5906,2.5908,2.5912,2.5886,2.5886,2.5886,2.5886,2.5774,2.5779,2.5788,2.5798,2.581,2.5827,2.5832,2.5847,2.5863,2.5868,2.5874,2.588,2.5882,2.5887,2.5889,2.5892,2.5863,2.5863,2.5863,2.576,2.5767,2.5769,2.5787,2.5803,2.5815,2.5821,2.5831,2.5851,2.5862,2.5873,2.5874,2.5884,2.5886,2.5896,2.5899,2.5906,0,0]}]]